Date String (YYYY-MM-DD hh:mm:ss) UTC,Instrument flags,absolute air pressure of the measurement (hPa),sample flow rate (lpm),inlet stack bypass flow (lpm),air temperature of the measurement (°C),ambient temperature measured by the external sensor (°C),aerosol sample conditioner tube jacket temperature (°C),OPC LED temperature (°C),internal box temperature (°C),relative humidity of the measurement (%),span deviation,mass concentration of particles derived from Lorenz-Mie calculation of OPC scattering (μg/m³),mass concentration of particles derived from Lorenz-Mie calculation of OPC scattering (μg/m³),mass concentration of particles derived from Lorenz-Mie calculation of OPC scattering (μg/m³)
DateTimeUTC,F1_M11,P_M11,Q1_M11,Q2_M11,T1_M11,T2_M11,T3_M11,T4_M11,T5_M11,U1_M11,ZSPAN_M11,X0_M11,X2_M11,X1_M11
2023-06-02 22:00:00,SystemResetWarning,0827.2,5.00,000.00,029.7,028.3,000.0,038.0,031.4,24.7,0000.0,0005.13,0001.72,0001.16
2023-06-02 22:01:00,SystemResetWarning,0827.1,5.00,000.00,029.7,028.4,000.0,038.0,031.4,25.2,0000.0,0005.21,0001.73,0001.17
2023-06-02 22:02:00,SystemResetWarning,0827.1,4.99,000.00,029.7,028.4,000.0,038.0,031.4,24.3,0000.0,0005.10,0001.69,0001.15
2023-06-02 22:03:00,SystemResetWarning,0827.1,5.00,000.00,029.7,028.4,000.0,038.0,031.4,24.5,0000.0,0004.56,0001.61,0001.13
2023-06-02 22:04:00,SystemResetWarning,0827.1,5.00,000.00,029.8,028.4,000.0,038.1,031.5,26.0,0000.0,0004.54,0001.62,0001.15
2023-06-02 22:05:00,SystemResetWarning,0827.1,4.98,000.00,029.8,027.3,000.0,038.0,031.3,26.2,0000.0,0004.62,0001.67,0001.14
2023-06-02 22:06:00,SystemResetWarning,0827.0,5.00,000.00,029.7,026.0,000.0,037.9,031.1,26.0,0000.0,0004.06,0001.68,0001.15
2023-06-02 22:07:00,SystemResetWarning,0827.1,5.01,000.00,029.7,025.9,000.0,037.9,031.0,26.1,0000.0,0003.56,0001.67,0001.16
2023-06-02 22:08:00,SystemResetWarning,0827.1,5.01,000.00,029.6,026.1,000.0,037.9,031.0,26.1,0000.0,0002.93,0001.67,0001.17
2023-06-02 22:09:00,SystemResetWarning,0827.0,5.00,000.00,029.5,026.4,000.0,037.9,031.0,26.4,0000.0,0003.06,0001.68,0001.18
2023-06-02 22:10:00,SystemResetWarning,0827.1,5.00,000.00,029.5,026.8,000.0,037.9,031.1,24.6,0000.0,0003.34,0001.69,0001.16
2023-06-02 22:11:00,SystemResetWarning,0827.1,5.00,000.00,029.5,027.1,000.0,037.9,031.1,24.4,0000.0,0003.30,0001.65,0001.12
2023-06-02 22:12:00,SystemResetWarning,0827.1,5.00,000.00,029.5,027.3,000.0,037.9,031.1,24.0,0000.0,0003.31,0001.63,0001.11
2023-06-02 22:13:00,SystemResetWarning,0827.1,5.00,000.00,029.5,027.5,000.0,037.9,031.2,23.9,0000.0,0004.17,0001.58,0001.09
2023-06-02 22:14:00,SystemResetWarning,0827.0,5.00,000.00,029.6,027.7,000.0,037.9,031.2,23.1,0000.0,0005.73,0001.55,0001.07
2023-06-02 22:15:00,SystemResetWarning,0827.1,4.99,000.00,029.6,027.8,000.0,037.9,031.2,23.4,0000.0,0005.84,0001.56,0001.04
2023-06-02 22:16:00,SystemResetWarning,0827.0,4.99,000.00,029.6,028.0,000.0,037.9,031.3,23.7,0000.0,0005.83,0001.51,0001.03
2023-06-02 22:17:00,SystemResetWarning,0827.0,5.00,000.00,029.6,028.1,000.0,037.9,031.3,23.4,0000.0,0005.69,0001.48,0001.04
2023-06-02 22:18:00,SystemResetWarning,0827.0,5.01,000.00,029.6,028.1,000.0,037.9,031.3,23.6,0000.0,0005.73,0001.48,0001.02
2023-06-02 22:19:00,SystemResetWarning,0827.0,5.00,000.00,029.6,028.2,000.0,038.0,031.3,24.6,0000.0,0005.77,0001.49,0001.00
2023-06-02 22:20:00,SystemResetWarning,0827.0,4.99,000.00,029.7,028.3,000.0,038.0,031.4,23.5,0000.0,0005.67,0001.46,0000.99
2023-06-02 22:21:00,SystemResetWarning,0827.0,5.00,000.00,029.7,028.3,000.0,038.0,031.4,23.7,0000.0,0005.35,0001.45,0001.00
2023-06-02 22:22:00,SystemResetWarning,0827.0,5.00,000.00,029.7,028.4,000.0,038.0,031.4,23.0,0000.0,0005.36,0001.47,0001.01
2023-06-02 22:23:00,SystemResetWarning,0827.0,5.00,000.00,029.7,028.1,000.0,038.0,031.4,22.4,0000.0,0005.33,0001.48,0001.01
2023-06-02 22:24:00,SystemResetWarning,0827.0,5.00,000.00,029.7,026.5,000.0,037.9,031.2,22.4,0000.0,0004.57,0001.46,0001.01
2023-06-02 22:25:00,SystemResetWarning,0827.0,5.01,000.00,029.6,025.7,000.0,037.8,031.1,22.4,0000.0,0003.22,0001.45,0001.00
2023-06-02 22:26:00,SystemResetWarning,0827.0,5.01,000.00,029.6,025.8,000.0,037.8,031.0,22.5,0000.0,0003.37,0001.42,0001.02
2023-06-02 22:27:00,SystemResetWarning,0827.0,5.00,000.00,029.5,026.0,000.0,037.8,031.0,22.3,0000.0,0003.14,0001.36,0001.00
2023-06-02 22:28:00,SystemResetWarning,0827.0,4.99,000.00,029.5,026.4,000.0,037.8,031.0,22.4,0000.0,0003.06,0001.33,0000.97
2023-06-02 22:29:00,SystemResetWarning,0826.9,5.00,000.00,029.5,026.7,000.0,037.8,031.0,22.9,0000.0,0003.09,0001.35,0000.96
2023-06-02 22:30:00,SystemResetWarning,0827.0,5.00,000.00,029.5,027.0,000.0,037.8,031.1,22.6,0000.0,0003.05,0001.33,0000.94
2023-06-02 22:31:00,SystemResetWarning,0826.9,5.01,000.00,029.5,027.3,000.0,037.8,031.1,23.0,0000.0,0003.06,0001.33,0000.93
2023-06-02 22:32:00,SystemResetWarning,0826.9,5.00,000.00,029.5,027.6,000.0,037.8,031.2,22.6,0000.0,0002.97,0001.28,0000.90
2023-06-02 22:33:00,SystemResetWarning,0826.9,4.99,000.00,029.5,027.7,000.0,037.8,031.2,22.3,0000.0,0003.49,0001.23,0000.89
2023-06-02 22:34:00,SystemResetWarning,0826.8,5.00,000.00,029.5,027.9,000.0,037.9,031.2,22.1,0000.0,0003.75,0001.18,0000.86
2023-06-02 22:35:00,SystemResetWarning,0826.8,5.01,000.00,029.6,028.0,000.0,037.9,031.3,22.7,0000.0,0003.53,0001.19,0000.84
2023-06-02 22:36:00,SystemResetWarning,0826.8,5.00,000.00,029.6,028.2,000.0,037.9,031.3,22.4,0000.0,0003.42,0001.19,0000.84
2023-06-02 22:37:00,SystemResetWarning,0826.8,5.00,000.00,029.6,028.3,000.0,037.9,031.3,22.3,0000.0,0002.91,0001.17,0000.82
2023-06-02 22:38:00,SystemResetWarning,0826.8,4.99,000.00,029.7,028.3,000.0,037.9,031.4,22.2,0000.0,0002.90,0001.17,0000.80
2023-06-02 22:39:00,SystemResetWarning,0826.8,5.00,000.00,029.7,028.4,000.0,037.9,031.4,23.0,0000.0,0002.93,0001.16,0000.79
2023-06-02 22:40:00,SystemResetWarning,0826.8,5.00,000.00,029.7,028.5,000.0,038.0,031.5,22.7,0000.0,0002.85,0001.12,0000.77
2023-06-02 22:41:00,SystemResetWarning,0826.8,5.01,000.00,029.8,028.5,000.0,038.0,031.5,22.4,0000.0,0002.79,0001.11,0000.77
2023-06-02 22:42:00,SystemResetWarning,0826.8,4.99,000.00,029.8,027.9,000.0,038.0,031.4,22.7,0000.0,0002.71,0001.08,0000.75
2023-06-02 22:43:00,SystemResetWarning,0826.8,4.99,000.00,029.7,026.3,000.0,037.9,031.2,22.4,0000.0,0002.71,0001.07,0000.74
2023-06-02 22:44:00,SystemResetWarning,0826.8,5.02,000.00,029.7,025.9,000.0,037.8,031.1,22.4,0000.0,0002.24,0001.08,0000.73
2023-06-02 22:45:00,SystemResetWarning,0826.8,4.98,000.00,029.6,026.0,000.0,037.8,031.0,23.1,0000.0,0001.92,0001.11,0000.72
2023-06-02 22:46:00,SystemResetWarning,0826.8,5.00,000.00,029.5,026.3,000.0,037.8,031.1,22.4,0000.0,0001.87,0001.08,0000.72
2023-06-02 22:47:00,SystemResetWarning,0826.7,5.01,000.00,029.5,026.7,000.0,037.9,031.1,22.3,0000.0,0001.93,0001.09,0000.70
2023-06-02 22:48:00,SystemResetWarning,0826.6,5.00,000.00,029.5,027.0,000.0,037.9,031.1,22.4,0000.0,0001.90,0001.08,0000.70
2023-06-02 22:49:00,SystemResetWarning,0826.6,5.00,000.00,029.5,027.3,000.0,037.9,031.2,23.1,0000.0,0001.94,0001.09,0000.69
2023-06-02 22:50:00,SystemResetWarning,0826.6,5.01,000.00,029.5,027.5,000.0,037.9,031.2,22.5,0000.0,0001.88,0001.08,0000.69
2023-06-02 22:51:00,SystemResetWarning,0826.6,5.00,000.00,029.5,027.7,000.0,037.9,031.2,22.7,0000.0,0001.80,0001.05,0000.70
2023-06-02 22:52:00,SystemResetWarning,0826.6,4.99,000.00,029.5,027.8,000.0,037.9,031.3,22.8,0000.0,0001.80,0001.04,0000.70
2023-06-02 22:53:00,SystemResetWarning,0826.6,4.99,000.00,029.6,028.0,000.0,037.9,031.3,22.0,0000.0,0001.72,0000.99,0000.70
2023-06-02 22:54:00,SystemResetWarning,0826.6,5.00,000.00,029.6,028.1,000.0,037.9,031.3,21.8,0000.0,0001.71,0000.99,0000.71
2023-06-02 22:55:00,SystemResetWarning,0826.6,5.00,000.00,029.6,028.2,000.0,037.9,031.3,21.3,0000.0,0001.58,0000.96,0000.70
2023-06-02 22:56:00,SystemResetWarning,0826.6,5.00,000.00,029.6,028.2,000.0,037.9,031.4,21.3,0000.0,0001.48,0000.92,0000.69
2023-06-02 22:57:00,SystemResetWarning,0826.6,5.00,000.00,029.7,028.3,000.0,038.0,031.4,21.0,0000.0,0001.88,0000.94,0000.69
2023-06-02 22:58:00,SystemResetWarning,0826.5,4.99,000.00,029.7,028.4,000.0,038.0,031.4,21.0,0000.0,0002.71,0000.93,0000.69
2023-06-02 22:59:00,SystemResetWarning,0826.5,5.00,000.00,029.7,028.4,000.0,038.0,031.4,21.0,0000.0,0002.76,0000.92,0000.68
